{"data":{"norad_id":67114,"intl_designator":"2025-299N","name":"STARLINK-36180","alt_names":[],"object_type":"PAYLOAD","status":"ACTIVE","operator":null,"country":"US","launch_date":"2025-12-15","launch_site_code":"AFETR","launch_vehicle":null,"mission":null,"orbit_class":"UNKNOWN","rcs_meters":null,"size_class":null,"mass_kg":null,"dimensions":null,"purposes":["comms"],"wikipedia_slug":null,"has_3d_model":false,"image_url":null,"decayed_at":null,"tle_current":{"epoch":"2026-09-19T10:11:39.840288Z","epoch_age_seconds":171970,"freshness":"FRESH","line1":"1 67114U 25299N   26262.42476667  .00009186  00000+0  34283-3 0  9992","line2":"2 67114  43.0037 155.0337 0001396 265.3378  94.7314 15.27587741 42747","mean_motion":15.27587741,"eccentricity":0.0001396,"inclination_deg":43.0037,"raan_deg":155.0337,"arg_perigee_deg":265.3378,"mean_anomaly_deg":94.7314,"bstar":0.00034283,"rev_number":4274,"period_min":94.266271020042,"perigee_km":482.06809845554,"apogee_km":483.98373514191,"semimajor_km":6861.1629167987,"source":"CELESTRAK","updated_at":"2026-09-21T09:00:36.106092Z"}}}